Showing default

ASTROCAST-01, 43798

Orbit data source: Space-Track

ASTROCAST-01, 43798 is a payload satellite owned by Astrocast (CH) in SSO that was launched on Mon, 03 Dec 2018 UTC via an FALCON 9 launch vehicle from the Air Force Western Test Range (AFWTR). Payload-class satellites include a variety of spacecraft equipped with specific instruments for various scientific and technological missions. These include communications satellites like Starlink; space stations such as the ISS; scientific satellites like the Hubble; Earth observation satellites from companies like Planet Labs, Umbra, and HawkEye 360; GPS; miniature CubeSats for education and research; and military/defense satellites.

Loading next visibility...
Identifier
43798, 2018-099AS
Orbit
SSO
Country
Flag of UnknownUnknown / SWTZ
Related business
Manufacturer
Astrocast
Mission
Operational Commercial Communications
Bus & Motor
CUBESAT 3U, Unknown motor
Mass
5 kg wet, 5 kg dry
Launch date (UTC)
2018-12-03 (7 years ago)
Launch vehicle
FALCON 9
Launch site
Air Force Western Test Range (AFWTR)
Object type
Payload
Rocket body
Debris
Shape & HBR
Box, 0.1 m
Radar Cross Section
0.035 m², Medium (>0.1 m² and < 1m²)

Expand to show TLE details & history
Last TLE update: 21 hours ago

TLE from 21 hours ago
0 ASTROCAST-01
1 43798U 18099AS  26034.20553986  .00033209  00000-0  81367-3 0  9996
2 43798  97.4534 109.3442 0005528 352.7072   7.4093 15.40661169393742
Epoch: 2026-02-03T04:55Z
TLE epoch observation values (Epoch: 2026-02-03T04:55:58.643Z)
Latitude
-0.00003°
Longitude
-98.03995°
Altitude
443.533 km
Speed
7.648 km/s
True Right ascension
07h 17m 22s
True Declination
0° 00' 00"
Sunlit
Object was in full shadow at epoch
Visualization orbit readout
Latitude
Unknown
Longitude
Unknown
Altitude
Unknown
Speed
Unknown
Apparent Right ascension
Unknown
Apparent Declination
Unknown
Sunlit
N/A
Visualization observer readout
Local Sidereal Time
03:32:20
Azimuth
Unknown
Elevation
Unknown
Doppler factor
Unknown
Orbital elements
Apogee altitude
444.867 km
Perigee altitude
437.327 km
Semi-major axis
6,819.234 km
Eccentricity
0.00055
Inclination
97.4534°
RAAN
109.3442°
Arg. of periapsis
352.7072°
True anomaly
7.41747°
Mean anomaly
7.4093°
Eccentric anomaly
7.41339°
Mean motion
3.85425 °/min
Orbital period
93.4 mins
BSTAR
0.00081367
Loading maneuver chart data...
Computing Atmospheric mass density...
Loading historical data...
Loading historical data...
Loading historical data...
Loading historical data...
Loading historical data...
Loading historical data...
Loading historical data...

Documentation

Showing up to 5 results
|